GW0552 Weather Reports


time (UTC)temp
F
wind
direction
speed
knots
gust
knots
rain 1hr
in
rain 24hr
in
rain mn
in
humidity
%
barometer
mb
20260506070634 58 108 3.5 5.2 0.07 0.10 0.10 98 1002.7
20260506070131 59 137 2.6 2.6 0.00 0.09 0.09 97 1002.9
20260506062109 62 131 0.9 1.7 0.14 0.04 0.04 86 1003.9
20260506061604 62 136 1.7 1.7 0.07 0.03 0.03 84 1004.0
20260506061102 63 124 1.7 1.7 0.00 0.02 0.02 82 1004.2
20260506060600 63 117 2.6 2.6 0.00 0.02 0.02 80 1004.5
20260506051029 59 131 1.7 1.7 0.00 0.01 0.01 97 1004.1
20260506050527 59 135 0.9 0.9 0.00 0.01 0.01 97 1004.1
20260506045017 59 131 0.0 0.9 0.00 0.01 0.01 94 1004.0
20260506044515 59 127 0.0 0.0 0.00 0.01 0.01 93 1004.0
20260506044012 59 129 0.0 0.0 0.07 0.01 0.01 92 1004.1
20260506043509 59 132 0.0 0.0 0.07 0.01 0.01 92 1004.4
20260506043007 59 131 0.0 0.0 0.00 0.00 0.00 90 1003.9
20260506042506 60 133 0.0 0.0 0.00 0.00 0.00 90 1003.9
20260506042004 61 132 0.0 0.0 0.00 0.00 0.00 89 1004.1
20260506041502 61 134 0.9 0.9 0.00 0.00 0.00 86 1004.0
20260506040959 61 155 1.7 2.6 0.00 0.00 0.00 87 1003.8
20260506040456 62 134 2.6 2.6 0.00 0.00 0.00 82 1004.2
20260506035952 59 130 4.3 7.0 0.00 0.01 0.01 94 1004.5
20260506035449 59 131 0.9 0.9 0.00 0.01 0.01 96 1004.4
20260506034946 59 131 0.0 0.0 0.00 0.01 0.01 95 1004.3
20260506034443 59 123 1.7 1.7 0.00 0.01 0.01 95 1004.4
20260506033940 59 136 1.7 1.7 0.00 0.01 0.01 95 1004.2
20260506033438 59 126 0.0 0.0 0.00 0.01 0.01 93 1004.0
20260506032934 59 132 0.9 0.9 0.05 0.01 0.01 92 1004.1
20260506032432 60 129 0.9 0.9 0.05 0.01 0.01 92 1004.4
20260506031928 60 126 0.9 0.9 0.00 0.00 0.00 91 1004.8
20260506031425 60 137 0.9 1.7 0.00 0.00 0.00 90 1004.5
20260506030923 60 130 0.0 0.0 0.00 0.00 0.00 89 1004.3
20260506030421 61 135 0.0 0.0 0.00 0.00 0.00 87 1004.6
20260506025917 61 132 0.0 0.0 0.00 0.00 0.00 86 1004.4
20260506025414 61 132 0.0 0.0 0.00 0.00 0.00 85 1004.5
20260506024911 61 132 0.0 0.0 0.00 0.00 0.00 84 1004.6
20260506024408 61 132 0.0 0.0 0.00 0.00 0.00 82 1004.7
20260506023904 61 132 0.0 0.0 0.00 0.00 0.00 82 1004.7
20260506023401 62 132 0.0 0.0 0.00 0.00 0.00 82 1004.7
20260506022857 62 132 0.0 0.0 0.00 0.00 0.00 83 1004.6
20260506022355 62 132 0.0 0.0 0.00 0.00 0.00 83 1004.6
20260506021853 62 132 0.0 0.0 0.00 0.00 0.00 81 1004.6
20260506021349 62 132 0.0 0.0 0.00 0.00 0.00 81 1004.7
20260506020846 62 132 0.0 0.0 0.00 0.00 0.00 81 1004.6
20260506020344 62 132 0.0 0.0 0.00 0.00 0.00 80 1004.7
20260506015842 62 132 0.0 0.0 0.00 0.00 0.00 80 1004.6
20260506015339 62 132 0.0 0.0 0.00 0.00 0.00 80 1004.5
20260506014836 62 132 0.0 0.0 0.00 0.00 0.00 80 1004.4
20260506014333 62 132 0.0 0.0 0.00 0.00 0.00 79 1004.4
20260506013829 63 132 0.0 0.0 0.00 0.00 0.00 79 1004.3
20260506013326 63 132 0.0 0.0 0.00 0.00 0.00 78 1004.5
20260506012823 63 132 0.0 0.0 0.00 0.00 0.00 79 1004.4
20260506012320 63 132 0.0 0.0 0.00 0.00 0.00 79 1004.6
20260506011817 63 135 0.0 0.0 0.00 0.00 0.00 79 1004.6
20260506011314 63 133 0.0 0.0 0.00 0.00 0.00 80 1004.6
20260506010811 63 133 0.0 0.0 0.00 0.00 0.00 79 1004.6
20260506010309 63 137 0.9 0.9 0.00 0.00 0.00 79 1004.7
20260506005806 63 136 0.0 0.9 0.00 0.00 0.00 80 1004.5
20260506005305 64 134 0.9 0.9 0.00 0.00 0.00 79 1004.7
20260506004758 64 134 1.7 1.7 0.00 0.00 0.00 78 1004.6
20260506004257 64 134 0.0 0.0 0.00 0.00 0.00 76 1004.4
20260506003752 64 134 0.0 0.0 0.00 0.00 0.00 75 1004.6
20260506003249 65 134 0.0 0.0 0.00 0.00 0.00 74 1004.7
20260506002745 65 134 0.0 0.0 0.00 0.00 0.00 71 1004.8
20260506002241 66 133 0.0 0.0 0.00 0.00 0.00 69 1004.8
20260506001737 66 134 0.0 0.0 0.00 0.00 0.00 68 1004.8
20260506001235 66 134 0.0 0.0 0.00 0.00 0.00 68 1005.1
20260506000732 67 134 0.0 0.0 0.00 0.00 0.00 65 1005.0
20260506000229 67 133 0.0 0.0 0.00 0.00 0.00 64 1004.8
20260505235726 68 134 0.0 0.0 0.00 0.00 0.00 62 1004.9
20260505235224 68 134 0.9 0.9 0.00 0.00 0.00 62 1004.9
20260505234720 69 134 0.0 0.0 0.00 0.00 0.00 56 1005.2
20260505234218 69 135 0.9 1.7 0.00 0.00 0.00 57 1005.2
20260505233714 71 119 0.9 1.7 0.00 0.00 0.00 51 1005.1
20260505233212 71 127 0.9 0.9 0.00 0.00 0.00 50 1005.3
20260505232709 71 106 0.9 0.9 0.00 0.00 0.00 53 1005.2
20260505232207 71 138 0.9 0.9 0.00 0.00 0.00 51 1005.3
20260505231703 71 129 1.7 1.7 0.00 0.00 0.00 51 1005.2
20260505231202 71 140 1.7 1.7 0.00 0.00 0.00 51 1005.3
20260505230700 71 136 1.7 1.7 0.00 0.00 0.00 50 1005.6
20260505230156 72 132 1.7 1.7 0.00 0.00 0.00 50 1005.6
20260505225652 72 149 2.6 4.3 0.00 0.00 0.00 49 1005.7
20260505225149 73 127 0.9 1.7 0.00 0.00 0.00 49 1005.4
20260505224645 73 136 4.3 5.2 0.00 0.00 0.00 47 1005.4
20260505224143 73 162 4.3 6.1 0.00 0.00 0.00 47 1005.7
20260505223641 73 111 3.5 5.2 0.00 0.00 0.00 46 1005.5
20260505223136 73 114 2.6 4.3 0.00 0.00 0.00 47 1005.3
20260505222632 73 140 4.3 5.2 0.00 0.00 0.00 46 1005.6
20260505222129 73 126 3.5 4.3 0.00 0.00 0.00 45 1005.3
20260505221626 74 139 4.3 6.1 0.00 0.00 0.00 47 1005.6
20260505221122 74 161 1.7 1.7 0.00 0.00 0.00 48 1005.6
20260505220620 74 123 2.6 4.3 0.00 0.00 0.00 48 1005.5
20260505220118 74 151 2.6 4.3 0.00 0.00 0.00 49 1005.5
20260505215615 74 136 5.2 6.1 0.00 0.00 0.00 47 1005.4
20260505215113 74 124 2.6 2.6 0.00 0.00 0.00 51 1005.3
20260505214611 74 116 3.5 5.2 0.00 0.00 0.00 49 1005.2
20260505214108 74 121 4.3 5.2 0.00 0.00 0.00 49 1005.4
20260505213605 75 129 0.9 0.9 0.00 0.00 0.00 49 1005.8
20260505213102 75 139 0.9 0.9 0.00 0.00 0.00 50 1005.5
20260505212558 75 146 2.6 2.6 0.00 0.00 0.00 49 1005.6
20260505212056 75 137 5.2 7.0 0.00 0.00 0.00 49 1005.6
20260505211552 75 137 0.0 0.9 0.00 0.00 0.00 52 1005.5
20260505211049 75 135 0.9 0.9 0.00 0.00 0.00 50 1005.7
20260505210546 75 114 3.5 4.3 0.00 0.00 0.00 49 1005.5
20260505210043 75 134 2.6 2.6 0.00 0.00 0.00 48 1005.7
20260505205541 75 131 5.2 6.1 0.00 0.00 0.00 49 1005.5
20260505205038 74 117 2.6 4.3 0.00 0.00 0.00 48 1005.9
20260505204536 74 134 4.3 5.2 0.00 0.00 0.00 50 1005.9
20260505204033 74 112 5.2 7.0 0.00 0.00 0.00 49 1005.8
20260505203529 75 143 5.2 7.0 0.00 0.00 0.00 49 1005.9
20260505203026 76 140 0.9 1.7 0.00 0.00 0.00 50 1005.9
20260505202522 76 103 2.6 4.3 0.00 0.00 0.00 49 1006.0
20260505202018 75 143 2.6 2.6 0.00 0.00 0.00 50 1006.1
20260505201516 75 129 2.6 2.6 0.00 0.00 0.00 50 1006.0
20260505201013 75 151 2.6 2.6 0.00 0.00 0.00 51 1006.1
20260505200511 74 124 0.9 0.9 0.00 0.00 0.00 53 1006.2
20260505200007 74 123 3.5 4.3 0.00 0.00 0.00 50 1006.0
20260505195504 74 97 1.7 1.7 0.00 0.00 0.00 52 1006.1
20260505195001 74 141 2.6 4.3 0.00 0.00 0.00 53 1006.3
20260505194459 74 82 1.7 4.3 0.00 0.00 0.00 51 1006.4
20260505193958 74 122 5.2 7.8 0.00 0.00 0.00 50 1006.3
20260505193456 75 108 2.6 4.3 0.00 0.00 0.00 49 1006.7
20260505192953 75 123 0.9 0.9 0.00 0.00 0.00 50 1006.5
20260505192452 74 120 5.2 6.1 0.00 0.00 0.00 51 1006.9
20260505191949 74 186 5.2 7.0 0.00 0.00 0.00 52 1006.6
20260505191447 74 133 3.5 4.3 0.00 0.00 0.00 52 1006.9
20260505190944 74 137 6.1 7.8 0.00 0.00 0.00 50 1007.1
20260505190439 75 127 3.5 5.2 0.00 0.00 0.00 50 1007.0
20260505185935 75 141 1.7 2.6 0.00 0.00 0.00 53 1007.2
20260505185432 74 137 4.3 5.2 0.00 0.00 0.00 53 1007.1
20260505184928 74 114 4.3 6.1 0.00 0.00 0.00 50 1007.2
20260505184426 74 125 1.7 1.7 0.00 0.00 0.00 50 1007.3
20260505183922 75 180 3.5 5.2 0.00 0.00 0.00 50 1007.1
20260505183419 75 104 6.1 7.0 0.00 0.00 0.00 49 1007.2
20260505182916 75 179 2.6 4.3 0.00 0.00 0.00 51 1007.5
20260505182413 75 132 0.9 0.9 0.00 0.00 0.00 50 1007.4
20260505181909 74 121 0.9 1.7 0.00 0.00 0.00 53 1007.5
20260505181406 74 107 6.1 7.8 0.00 0.00 0.00 51 1007.6
20260505180903 74 135 2.6 2.6 0.00 0.00 0.00 52 1007.5
20260505180400 74 110 8.7 8.7 0.00 0.00 0.00 50 1007.3
20260505175856 74 168 5.2 7.8 0.00 0.00 0.00 52 1007.5
20260505175352 73 127 4.3 5.2 0.00 0.00 0.00 53 1007.7
20260505174849 73 144 5.2 6.1 0.00 0.00 0.00 51 1007.8
20260505174347 73 123 2.6 4.3 0.00 0.00 0.00 53 1007.8
20260505173842 73 117 5.2 6.1 0.00 0.00 0.00 51 1007.8
20260505173339 73 178 2.6 4.3 0.00 0.00 0.00 52 1007.7
20260505172836 73 136 3.5 6.1 0.00 0.00 0.00 54 1007.9
20260505172334 73 151 3.5 5.2 0.00 0.00 0.00 55 1007.9
20260505171833 73 163 4.3 6.1 0.00 0.00 0.00 54 1007.9
20260505171331 73 122 6.1 7.8 0.00 0.00 0.00 53 1007.9
20260505170827 74 174 2.6 2.6 0.00 0.00 0.00 56 1007.8
20260505170324 73 115 3.5 4.3 0.00 0.00 0.00 53 1007.9
20260505165819 74 111 2.6 4.3 0.00 0.00 0.00 54 1007.9
20260505165315 74 102 3.5 4.3 0.00 0.00 0.00 51 1007.8
20260505164811 74 170 5.2 7.0 0.00 0.00 0.00 53 1007.8
20260505164308 75 116 4.3 6.1 0.00 0.00 0.00 53 1007.7
20260505163806 75 137 5.2 6.1 0.00 0.00 0.00 55 1007.7
20260505163305 75 117 2.6 2.6 0.00 0.00 0.00 51 1007.6
20260505162803 74 161 6.1 7.8 0.00 0.00 0.00 53 1007.8
20260505162258 73 136 6.1 7.0 0.00 0.00 0.00 52 1007.9
20260505161756 74 141 9.6 13.0 0.00 0.00 0.00 52 1008.0
20260505161253 74 182 4.3 6.1 0.00 0.00 0.00 52 1008.1
20260505160750 73 116 4.3 5.2 0.00 0.00 0.00 56 1008.0
20260505160248 75 121 4.3 7.0 0.00 0.00 0.00 53 1008.0
20260505153227 73 151 6.1 7.0 0.00 0.00 0.00 56 1008.2
20260505152724 73 130 4.3 7.0 0.00 0.00 0.00 56 1008.4
20260505152220 73 119 0.9 1.7 0.00 0.00 0.00 56 1008.2
20260505151715 73 173 1.7 2.6 0.00 0.00 0.00 55 1008.1
20260505151213 72 153 0.9 0.9 0.00 0.00 0.00 55 1008.4
20260505150709 72 189 5.2 6.1 0.00 0.00 0.00 54 1008.0
20260505150206 72 159 2.6 2.6 0.00 0.00 0.00 57 1008.2
20260505140639 71 111 7.0 9.6 0.00 0.00 0.00 54 1008.0
20260505140136 70 116 6.1 7.8 0.00 0.00 0.00 55 1007.9
20260505124549 66 138 3.5 4.3 0.00 0.00 0.00 63 1008.1
20260505124046 66 124 3.5 4.3 0.00 0.00 0.00 63 1008.1
20260505123542 66 114 2.6 4.3 0.00 0.00 0.00 63 1008.1
20260505123038 65 138 1.7 1.7 0.00 0.00 0.00 66 1008.1
20260505122536 65 122 4.3 5.2 0.00 0.00 0.00 65 1008.0
20260505122032 64 120 2.6 2.6 0.00 0.00 0.00 66 1007.9
20260505121529 65 116 2.6 4.3 0.00 0.00 0.00 66 1007.9
20260505121026 64 132 1.7 1.7 0.00 0.00 0.00 66 1008.1
20260505120522 64 127 2.6 2.6 0.00 0.00 0.00 66 1007.7
20260505120018 64 133 5.2 7.0 0.00 0.00 0.00 65 1007.8
20260505115513 64 136 2.6 2.6 0.00 0.00 0.00 69 1007.5
20260505115011 63 139 3.5 6.1 0.00 0.00 0.00 68 1007.6
20260505114507 62 119 5.2 7.0 0.00 0.00 0.00 69 1007.4
20260505114004 62 133 2.6 2.6 0.00 0.00 0.00 71 1007.3
20260505113500 62 150 3.5 5.2 0.00 0.00 0.00 70 1007.4
20260505112956 61 169 5.2 7.0 0.00 0.00 0.00 71 1007.3
20260505112453 60 143 2.6 4.3 0.00 0.00 0.00 75 1007.3
20260505111950 60 119 3.5 5.2 0.00 0.00 0.00 77 1007.3
20260505111444 59 165 2.6 2.6 0.00 0.00 0.00 79 1007.1
20260505110941 58 132 3.5 4.3 0.00 0.00 0.00 81 1007.0
20260505110438 57 137 1.7 1.7 0.00 0.00 0.00 82 1007.0
20260505101908 59 113 2.6 2.6 0.00 0.00 0.00 77 1007.2
20260505101403 60 149 2.6 2.6 0.00 0.00 0.00 76 1007.0
20260505100859 60 145 4.3 5.2 0.00 0.00 0.00 73 1006.9
20260505100356 60 125 4.3 5.2 0.00 0.00 0.00 75 1007.0
20260505095851 60 141 1.7 1.7 0.00 0.00 0.00 73 1006.8
20260505095349 60 138 2.6 2.6 0.00 0.00 0.00 73 1006.6
20260505094845 60 133 2.6 4.3 0.00 0.00 0.00 75 1006.7
20260505094342 60 145 2.6 4.3 0.00 0.00 0.00 74 1006.8
20260505093838 60 133 2.6 2.6 0.00 0.00 0.00 74 1006.5
20260505093335 61 139 2.6 2.6 0.00 0.00 0.00 72 1006.6
20260505092832 61 134 2.6 2.6 0.00 0.00 0.00 74 1006.4
20260505092331 60 130 2.6 2.6 0.00 0.00 0.00 75 1006.3
20260505091827 60 126 1.7 1.7 0.00 0.00 0.00 75 1006.2
20260505091326 61 134 1.7 1.7 0.00 0.00 0.00 71 1006.3
20260505090823 60 143 3.5 4.3 0.00 0.00 0.00 74 1006.0
20260505090321 60 152 2.6 2.6 0.00 0.00 0.00 77 1006.3
20260505085818 61 131 2.6 2.6 0.00 0.00 0.00 74 1006.3
20260505085317 61 124 1.7 1.7 0.00 0.00 0.00 74 1006.1
20260505084814 60 135 2.6 2.6 0.00 0.00 0.00 74 1006.1
20260505084312 61 142 2.6 2.6 0.00 0.00 0.00 74 1006.1
20260505083809 61 137 2.6 2.6 0.00 0.00 0.00 75 1006.2
20260505083306 62 129 2.6 2.6 0.00 0.00 0.00 73 1006.0
20260505082802 61 136 2.6 4.3 0.00 0.00 0.00 74 1006.1
20260505082259 61 132 2.6 2.6 0.00 0.00 0.00 75 1006.4
20260505081755 62 138 0.9 1.7 0.00 0.00 0.00 72 1006.3
20260505081252 62 137 2.6 2.6 0.00 0.00 0.00 72 1006.0
20260505080749 62 135 5.2 7.0 0.00 0.00 0.00 70 1006.2
20260505080245 63 141 3.5 4.3 0.00 0.00 0.00 69 1006.0
20260505075740 63 165 1.7 1.7 0.00 0.00 0.00 68 1006.2
20260505075238 64 144 1.7 2.6 0.00 0.00 0.00 68 1006.0
20260505074735 64 144 3.5 4.3 0.00 0.00 0.00 68 1005.8
20260505074232 64 137 1.7 1.7 0.00 0.00 0.00 67 1006.0
20260505073730 65 128 3.5 4.3 0.00 0.00 0.00 65 1006.0
20260505073227 65 164 4.3 5.2 0.00 0.00 0.00 66 1005.9
20260505072724 64 136 2.6 4.3 0.00 0.00 0.00 68 1005.9
20260505072220 65 142 3.5 4.3 0.00 0.00 0.00 67 1006.0
20260505071715 64 143 2.6 2.6 0.00 0.00 0.00 67 1005.9
20260505071213 64 119 5.2 7.0 0.00 0.00 0.00 70 1006.1